Powrót do katalogu

STARLINK-36254

AktywnyŁącznośćVLEO
NORAD 68338·PAYLOAD·🇺🇸 United States

Wystrzelony Mar 22, 2026 z Cape Canaveral Space Force Station

Loading…

Następne Przeloty (najbliższe 24 godziny)

TLE

ŚwieżeSource: CelesTrak SupGP

Epoka: Sep 14, 2026, 22:46 UTC

1 68338C 26059T   26257.94909722 -.00056225  00000+0 -16605-2 0  2572
2 68338  53.1575 181.3429 0001297  89.4117 215.2110 15.34431314    15

Śledź STARLINK-36254 w czasie rzeczywistym z AllMySat

Download on the App Store